Voltar ao catálogo

STARLINK-31319

AtivoComunicaçõesVLEO
NORAD 59457·PAYLOAD·🇺🇸 United States

Lançado Apr 10, 2024 de Cape Canaveral Space Force Station

Loading…

Próximas Passagens (próximas 24 horas)

TLE

AtualizadoSource: CelesTrak SupGP

Época: Sep 14, 2026, 21:30 UTC

1 59457C 24068C   26257.89631944  .00060152  00000+0  21770-2 0  2575
2 59457  43.0042  42.4220 0001514 284.6018 325.8186 15.27573948    14

Acompanhe STARLINK-31319 em tempo real com AllMySat

Download on the App Store